#timestamp,LO_Frequency,Hit 
1504411215.3,286046990.5,N
1504411235.1,286046990.4,N
1504411255.9,286046990.4,N
1504411275.7,286046991.9,N
1504411295.5,286046989.6,N
1504411315.4,286046984.1,P
1504411335.2,286046995.7,N
1504411355.0,286046999.5,N
1504411355.9,286046999.5,N
1504411375.8,286047000.2,N
1504411395.6,286047001.1,N
1504411415.4,286047005.4,N
1504411435.3,286047002.9,N
1504411455.1,286047002.3,N
1504411456.0,286047002.3,N
1504411475.8,286047001.8,N
1504411495.7,286047005.0,N
1504411515.5,286047005.1,N
1504411535.3,286047007.5,N
1504411555.1,286047006.2,N
1504411575.9,286047008.1,N
1504411595.7,286047009.4,N
1504411615.5,286047012.5,N
1504411635.4,286047015.3,N
1504411655.2,286047015.5,N
1504411675.0,286047018.7,N
1504411675.9,286047018.7,N
1504411695.8,286047019.8,N
1504411715.6,286047019.9,N
1504411735.4,286047020.8,N
1504411755.3,286047022.7,N
1504411775.1,286047023.4,N
1504411776.0,286047023.4,N
1504411795.8,286047021.7,N
1504411815.7,286047020.7,N
1504411835.5,286047022.8,N
1504411855.3,286047021.9,N
1504411875.2,286047020.1,N
1504411895.9,286047020.4,N
1504411915.7,286047023.9,N
1504411935.6,286047022.1,N
1504411955.4,286047022.1,N
1504411975.2,286047022.3,N
1504411995.1,286047022.6,P
1504411996.0,286047022.6,P
1504412015.8,286047007.8,N
1504412035.6,286047011.6,N
1504412055.5,286047013.7,N
1504412075.3,286047010.9,N
1504412095.1,286047011.4,N
1504412115.8,286047011.1,N
1504412135.7,286047011.2,N
1504412155.5,286047013.6,N
1504412175.3,286047012.1,N
1504412195.2,286047008.2,N
1504412215.0,286047005.8,N
1504412215.9,286047005.8,N
1504412235.7,286047007.4,N
1504412255.6,286047007.1,N
1504412275.4,286047008.8,N
1504412295.2,286047006.3,N
1504412315.1,286047011.2,N
1504412316.0,286047011.2,N
1504412335.8,286047012.7,N
1504412355.6,286047015.4,P
1504412375.5,286047001.4,N
1504412395.3,286047004.7,N
1504412415.1,286047007.3,N
1504412435.9,286047007.7,N
1504412455.7,286047010.5,N
1504412475.5,286047009.9,N
1504412495.4,286047010.1,N
1504412515.2,286047009.9,N
1504412535.0,286047010.7,N
1504412535.9,286047010.7,P
1504412555.8,286046998.9,N
1504412575.6,286046993.9,N
1504412595.4,286046990.1,N
1504412615.3,286046985.8,N
1504412635.1,286046982.9,N
1504412636.0,286046982.9,N
1504412655.8,286046977.4,N
1504412675.7,286046973.9,N
1504412695.5,286046967.6,N
1504412715.3,286046970.5,N
1504412735.2,286046972.7,N
1504412755.9,286046974.3,N
1504412775.7,286046974.9,N
1504412795.6,286046976.2,N
1504412815.4,286046976.6,N
1504412835.2,286046976.1,N
1504412855.0,286046978.6,N
1504412856.0,286046978.6,N
1504412875.8,286046976.7,N
1504412895.6,286046975.2,N
1504412915.4,286046974.8,N
1504412935.3,286046981.9,N
1504412955.1,286046979.7,N
1504412975.8,286046976.6,N
1504412995.7,286046974.2,N
1504413015.5,286046973.2,N
1504413035.3,286046971.8,N
1504413055.2,286046970.1,N
1504413075.9,286046968.1,P
1504413095.7,286046992.7,N
1504413115.6,286046994.8,N
1504413135.4,286046993.2,N
1504413155.2,286046986.9,N
1504413175.1,286046989.9,N
1504413176.0,286046989.9,N
1504413195.8,286046985.7,N
1504413215.6,286046991.6,N
1504413235.5,286046994.6,N
1504413255.3,286046994.4,N
1504413275.1,286046987.7,N
1504413295.9,286046985.0,N
1504413315.7,286046982.6,N
1504413335.5,286046983.6,N
1504413355.3,286046980.1,N
1504413375.2,286046978.8,P
1504413395.0,286046993.2,N
1504413395.9,286046993.2,N
1504413415.8,286046991.8,N
1504413435.6,286046995.5,N
1504413455.4,286046998.2,N
1504413475.3,286047003.8,N
1504413495.1,286047011.4,N
1504413496.0,286047011.4,N
1504413515.8,286047013.2,N
1504413535.7,286047014.3,N
1504413555.5,286047015.7,N
1504413575.3,286047019.6,N
1504413595.1,286047021.5,N
1504413615.9,286047024.3,N
1504413635.7,286047024.4,N
1504413655.5,286047022.7,N
1504413675.4,286047024.8,N
1504413695.2,286047024.3,N
1504413715.0,286047025.6,N
1504413715.9,286047025.6,N
1504413735.8,286047026.3,N
1504413755.6,286047024.7,N
1504413775.4,286047024.9,N
1504413795.3,286047023.7,N
1504413815.1,286047024.5,N
1504413816.0,286047024.5,N
1504413835.8,286047026.2,N
1504413855.7,286047025.2,N
1504413875.5,286047023.1,N
1504413895.3,286047024.9,N
1504413915.2,286047026.0,N
1504413935.9,286047029.4,N
1504413955.7,286047028.3,N
1504413975.6,286047025.5,N
1504413995.4,286047028.2,P
1504414015.2,286047003.9,N
1504414035.1,286047004.9,N
1504414036.0,286047004.9,N
1504414055.8,286047006.7,N
1504414075.6,286047008.8,N
1504414095.5,286047008.2,N
1504414115.3,286047010.6,N
1504414135.1,286047009.9,N
1504414155.8,286047010.1,N
1504414175.7,286047010.0,N
1504414195.5,286047007.9,N
1504414215.3,286047009.0,N
1504414235.2,286047007.7,N
1504414255.0,286047009.3,N
1504414255.9,286047009.3,N
1504414275.7,286047012.2,N
1504414295.6,286047008.1,N
1504414315.4,286047007.9,N
1504414335.2,286047010.6,N
1504414355.1,286047007.4,N
1504414356.0,286047007.4,N
1504414375.8,286047005.5,N
1504414395.6,286047004.9,N
1504414415.5,286047006.8,N
1504414435.3,286047006.4,N
1504414455.1,286047008.1,N
1504414475.9,286047012.4,N
1504414495.7,286047011.4,N
1504414515.5,286047014.9,P
1504414535.4,286047006.0,N
1504414555.2,286046998.1,N
1504414575.0,286046996.8,N
1504414575.9,286046996.8,N
1504414595.8,286046997.9,N
1504414615.6,286046992.1,N
1504414635.4,286046990.9,N
1504414655.3,286046990.0,N
1504414675.1,286046982.2,N
1504414676.0,286046982.2,N
1504414695.8,286046984.8,N
1504414715.7,286046984.9,N
1504414735.5,286046984.2,N
1504414755.3,286046988.2,N
1504414775.1,286046986.3,N
1504414795.9,286046981.3,N
